This is the latest recevied weather packets stored in our database for station/object YO8SDE-8. If no packets are shown the sender has not sent any weather packets the latest 10 day(s).
| Time | Temp. | Humidity | Pressure | Rain* | Wind** | Luminosity | Snow |
|---|---|---|---|---|---|---|---|
| 1778115658 | 11.67° C | 67% | 1001.6 hPa | 0 mm | - | - | - |
| 1778115358 | 11.67° C | 68% | 1001.5 hPa | 0 mm | - | - | - |
| 1778115058 | 11.67° C | 67% | 1001.4 hPa | 0 mm | - | - | - |
| 1778114758 | 11.67° C | 66% | 1001.4 hPa | 0 mm | - | - | - |
| 1778114458 | 12.22° C | 65% | 1001.3 hPa | 0 mm | - | - | - |
| 1778114158 | 12.78° C | 65% | 1001.2 hPa | 0 mm | - | - | - |
| 1778113858 | 13.33° C | 65% | 1001.2 hPa | 0 mm | - | - | - |
| 1778113558 | 13.33° C | 65% | 1001.2 hPa | 0 mm | - | - | - |
| 1778113258 | 13.89° C | 64% | 1001.3 hPa | 0 mm | - | - | - |
| 1778112958 | 13.89° C | 64% | 1001.3 hPa | 0 mm | - | - | - |
| 1778112658 | 13.89° C | 64% | 1001.4 hPa | 0 mm | - | - | - |
| 1778112358 | 13.89° C | 65% | 1001.4 hPa | 0 mm | - | - | - |
| 1778112058 | 13.33° C | 65% | 1001.3 hPa | 0 mm | - | - | - |
| 1778111758 | 13.33° C | 65% | 1001.3 hPa | 0 mm | - | - | - |
| 1778111458 | 13.33° C | 65% | 1001.2 hPa | 0 mm | - | - | - |
| 1778111158 | 13.33° C | 65% | 1001.2 hPa | 0 mm | - | - | - |
| 1778110858 | 13.33° C | 64% | 1001.2 hPa | 0 mm | - | - | - |
| 1778110558 | 13.33° C | 64% | 1001.3 hPa | 0 mm | - | - | - |
| 1778110258 | 13.89° C | 63% | 1001.3 hPa | 0 mm | - | - | - |
| 1778109958 | 13.89° C | 63% | 1001.3 hPa | 0 mm | - | - | - |
| 1778109658 | 13.89° C | 63% | 1001.3 hPa | 0 mm | - | - | - |
| 1778109358 | 14.44° C | 63% | 1001.4 hPa | 0 mm | - | - | - |
| 1778109058 | 14.44° C | 63% | 1001.5 hPa | 0 mm | - | - | - |
| 1778108758 | 14.44° C | 62% | 1001.3 hPa | 0 mm | - | - | - |
| 1778108458 | 15° C | 62% | 1001.3 hPa | 0 mm | - | - | - |
* Rain latest hour (hover to see other rain measurements)
** Current wind speed in m/s (hover to see current wind gust speed)